Location: Bothwell
(42.3833°S, 147.0000°E)
Time: 04:22:56
(UTC+10:00)

AO-7 - Visible Passes

Search period start: 28 September 2022 00:00
Search period end: 08 October 2022 01:00
Orbit: 1440 x 1458 km, 101.9° (Epoch: 27 September)

Date Brightness Start Highest point End Pass type
(mag) Time Alt. Az. Time Alt. Az. Time Alt. Az.
28 Sep ? 02:14:22 10° ENE 02:21:25 32° SE 02:28:30 10° S visible
28 Sep ? 04:05:23 10° N 04:13:36 64° WNW 04:21:55 10° SSW visible
28 Sep ? 19:55:00 10° SSW 19:57:38 12° SW 20:00:16 10° WSW visible
29 Sep ? 01:18:20 10° ESE 01:22:41 15° SE 01:27:03 10° SSE visible
29 Sep ? 03:05:37 10° NE 03:13:44 62° ESE 03:21:57 10° SSW visible
29 Sep ? 04:59:47 10° NNW 05:06:53 31° W 05:14:05 10° SW visible
29 Sep ? 18:52:43 10° S 18:59:07 25° SW 19:05:31 10° WNW visible
30 Sep ? 02:07:39 10° ENE 02:14:29 30° SE 02:21:19 10° S visible
30 Sep ? 03:58:15 10° N 04:06:31 71° WNW 04:14:54 10° SSW visible
30 Sep ? 19:47:26 10° SSW 19:50:47 13° SW 19:54:10 10° WSW visible
01 Oct ? 01:11:59 10° ESE 01:15:49 14° SE 01:19:40 10° SSE visible
01 Oct ? 02:58:43 10° NE 03:06:44 56° ESE 03:14:51 10° S visible
01 Oct ? 04:52:25 10° NNW 04:59:45 34° W 05:07:11 10° SW visible
01 Oct ? 18:45:32 10° S 18:52:12 28° SW 18:58:53 10° WNW visible
02 Oct ? 03:00:58 10° ENE 03:07:32 27° SE 03:14:09 10° S visible
02 Oct ? 04:51:09 10° NNE 04:59:27 77° WNW 05:07:52 10° SSW visible
02 Oct ? 20:39:59 10° SSW 20:43:56 14° SW 20:47:54 10° WSW visible
03 Oct ? 02:05:44 10° ESE 02:08:58 13° SE 02:12:12 10° SSE visible
03 Oct ? 03:51:49 10° NE 03:59:44 52° ESE 04:07:44 10° S visible
03 Oct ? 05:45:04 10° NNW 05:52:37 38° W 06:00:16 10° SSW visible
03 Oct ? 19:38:21 10° S 19:45:17 30° SW 19:52:12 10° WNW visible
04 Oct ? 02:54:18 10° ENE 03:00:37 25° SE 03:06:58 10° S visible
04 Oct ? 04:44:04 10° NNE 04:52:24 84° WNW 05:00:50 10° SSW visible
04 Oct ? 20:32:37 10° SSW 20:37:05 16° SW 20:41:33 10° WSW visible
05 Oct ? 01:59:38 10° ESE 02:02:07 12° SE 02:04:36 10° SSE visible
05 Oct ? 03:44:57 10° NE 03:52:46 47° ESE 04:00:38 10° S visible
05 Oct ? 05:37:47 10° NNW 05:45:30 42° W 05:53:21 10° SSW visible
06 Oct ? 02:47:41 10° E 02:53:42 23° SE 02:59:45 10° S visible
06 Oct ? 04:37:02 10° NNE 04:45:21 89° ESE 04:53:47 10° SSW visible
06 Oct ? 20:25:17 10° S 20:30:12 17° SW 20:35:07 10° W visible
07 Oct ? 01:53:56 10° SE 01:55:17 10° SE 01:56:39 10° SSE visible
07 Oct ? 03:38:07 10° NE 03:45:47 43° ESE 03:53:30 10° S visible
07 Oct ? 05:30:31 10° N 05:38:24 46° W 05:46:24 10° SSW visible
